[[{"header":{"parameterUnit":"m.s-1","parameterCategory":1,"la1":30.2991,"la2":30.254,"lo1":-89.0895,"lo2":-89.0444,"dy":0.0017,"dx":0.0017,"nx":28,"ny":28,"refTime":"2025-06-17T03:00:00:Z","depth":0,"parameterNumber":2,"parameterNumberName":"U-component_of_WINDS"},"data":[0,0,0,0,0,0,0,0,0,0,0,0,0,0,0,0,0,0,0,0,0,0,0,0,0,0,0,0,0,0,0,0,0,0,0,0,0,0,0,0,0,0,0,0,0,0,0,0,0,0,0,0,0,0,0,0,0,0,0.6201,0.6201,0,0.6184,0.6184,0.6184,0.6156,0.6156,0.6155,0.6155,0.6138,0.6138,0.6139,0,0,0,0,0,0,0,0,0,0,0,0,0,0.6209,0.6209,0.6201,0.6201,0.62,0.6185,0.6184,0.6184,0.6156,0.6156,0.6155,0.6155,0.6138,0.6138,0.6139,0,0,0,0,0,0,0,0,0,0,0,0,0,0.62,0.6209,0.6201,0.6185,0.6183,0.6185,0.6184,0.6184,0.6157,0.6156,0.6155,0.6154,0.6138,0.6138,0.6139,0.6154,0,0,0.6139,0.6139,0,0,0,0,0,0,0,0,0.6201,0.62,0.6187,0.6186,0.6184,0.6172,0.6181,0.6174,0.6157,0.6167,0.6155,0.6154,0.615,0.6149,0.6148,0.6154,0.6153,0.6139,0.6139,0.6139,0.6139,0,0,0,0,0,0,0,0.6201,0.6201,0.6194,0.6187,0.6185,0.6179,0.6176,0.618,0.6163,0.6166,0.6164,0.6162,0.6149,0.6148,0.6147,0.6153,0.6139,0.6139,0.6139,0.6139,0.6171,0.6172,0,0,0,0,0,0,0.6204,0.6201,0.6195,0.6194,0.6191,0.6179,0.6177,0.6176,0.6163,0.616,0.6163,0.6161,0.6148,0.6147,0.6147,0.6164,0.6139,0.6139,0.6139,0.617,0.6171,0.6172,0,0,0,0,0,0,0.6205,0.6204,0.6196,0.6197,0.6195,0.618,0.618,0.6177,0.6175,0.6161,0.6158,0.6165,0.6147,0.6146,0.6153,0.6163,0.6139,0.6139,0.6169,0.6171,0.6172,0.62,0,0,0,0,0,0,0.6205,0.6204,0.621,0.6197,0.6195,0.6202,0.618,0.6177,0.6175,0.6173,0.6161,0.6159,0.6147,0.6153,0.6153,0.6163,0.6139,0.6168,0.617,0.6171,0.6198,0.6202,0.6206,0,0,0,0,0,0.6205,0.6219,0.621,0.621,0.6202,0.6203,0.6201,0.6187,0.6176,0.6182,0.6173,0.6159,0.6162,0.6154,0.6153,0.6164,0.6168,0.617,0.6171,0.6197,0.6201,0.6206,0,0,0,0,0,0,0.6233,0.6217,0.6207,0.6217,0.6211,0.6198,0.6205,0.6193,0.619,0.6188,0.6171,0.6168,0.6177,0.6171,0.6162,0.6179,0.6163,0.6165,0.6182,0.6187,0.619,0.6191,0.6139,0,0,0,0,0,0.624,0.6242,0.6227,0.6237,0.6235,0.622,0.622,0.621,0.6203,0.6201,0.6192,0.6186,0.6186,0.6186,0.6185,0.6197,0.6195,0.6205,0.6208,0.6211,0.6213,0.6219,0.6224,0.6178,0.6178,0.6178,0,0,0.6255,0.6246,0.6248,0.6243,0.6237,0.6239,0.6219,0.6222,0.6223,0.6201,0.6206,0.62,0.6192,0.6202,0.6206,0.6197,0.6225,0.6214,0.6216,0.6216,0.6222,0.6226,0.623,0.618,0.6179,0.6179,0,0,0.6283,0.6277,0.6284,0.6279,0.6271,0.6261,0.6263,0.6252,0.6246,0.6252,0.6235,0.6237,0.6237,0.6232,0.623,0.6257,0.6244,0.6257,0.6276,0.6283,0.6286,0.629,0.6299,0.6303,0.6259,0.6259,0.6259,0,0.6303,0.6305,0.629,0.6294,0.6292,0.6272,0.628,0.6276,0.6268,0.6267,0.6258,0.6257,0.6251,0.6259,0.6266,0.6265,0.6267,0.6258,0.6287,0.629,0.6293,0.6302,0.6306,0.6261,0.6261,0.626,0.626,0,0.6329,0.6331,0.6338,0.6331,0.633,0.6336,0.6322,0.6323,0.6313,0.6304,0.631,0.6302,0.6299,0.63,0.629,0.6307,0.6302,0.629,0.6274,0.6299,0.6307,0.6311,0.6263,0.6262,0.6262,0.6262,0,0,0.6374,0.6358,0.6361,0.6358,0.6348,0.6349,0.6354,0.6351,0.6352,0.6348,0.6352,0.6353,0.6342,0.6339,0.6329,0.6334,0.6357,0.6322,0.6322,0.6329,0.6375,0.6383,0.6388,0.6348,0.6349,0.6349,0.6375,0,0.6399,0.6407,0.6394,0.6405,0.6407,0.6388,0.6393,0.6388,0.638,0.638,0.6372,0.6373,0.6358,0.6357,0.6362,0.6353,0.6366,0.6351,0.6352,0.6352,0.6354,0.6392,0.6401,0.6426,0.6379,0.6379,0.6379,0,0.643,0.6427,0.6439,0.6428,0.6428,0.6433,0.6429,0.643,0.6423,0.6417,0.6415,0.6403,0.6407,0.6392,0.6398,0.6389,0.6388,0.6384,0.6385,0.6384,0.6367,0.6392,0.6433,0.6437,0.6384,0.6384,0.6384,0,0.6461,0.646,0.6467,0.6464,0.6452,0.6456,0.6451,0.6444,0.6443,0.644,0.644,0.6437,0.6436,0.6435,0.6423,0.6412,0.643,0.6414,0.6426,0.6426,0.643,0.643,0.6472,0.643,0.643,0.643,0.643,0,0.6491,0.6499,0.6481,0.6485,0.6493,0.6478,0.6486,0.6479,0.6473,0.6476,0.646,0.6463,0.6447,0.6448,0.6438,0.6445,0.6445,0.644,0.6437,0.6441,0.6442,0.6441,0.6439,0.6431,0.6431,0.6431,0.6431,0,0.6527,0.6515,0.6521,0.6509,0.6507,0.6513,0.6503,0.6507,0.6498,0.6502,0.6502,0.6489,0.6489,0.6477,0.6475,0.6469,0.648,0.6474,0.6482,0.648,0.6492,0.6491,0.6535,0.654,0.6496,0.6496,0.6496,0,0.6547,0.6552,0.6541,0.6542,0.6538,0.6539,0.6538,0.6524,0.6524,0.6517,0.6521,0.6521,0.6519,0.6521,0.6512,0.6511,0.6505,0.652,0.6504,0.6508,0.6505,0.6504,0.6505,0.6523,0.6524,0.6524,0.6524,0,0.6583,0.6577,0.6576,0.6574,0.6573,0.6571,0.6567,0.6569,0.6553,0.6554,0.6554,0.6553,0.6552,0.6551,0.6548,0.6543,0.6531,0.653,0.6532,0.6536,0.654,0.6538,0.6491,0.6528,0.6528,0.6528,0.6528,0.6527,0.6611,0.6615,0.6608,0.6608,0.6604,0.6601,0.6604,0.6596,0.6596,0.6593,0.6585,0.6587,0.6581,0.6576,0.6572,0.6574,0.6566,0.657,0.6571,0.6572,0.6574,0.654,0.6573,0.6573,0.6573,0.6573,0.6573,0,0.6646,0.6641,0.6641,0.6636,0.6637,0.6626,0.6621,0.6622,0.6624,0.6619,0.6618,0.6619,0.6619,0.661,0.6608,0.6612,0.6606,0.6612,0.6611,0.661,0.6581,0.6579,0.6616,0.6616,0.6616,0.6616,0.6616,0.6616,0.6664,0.667,0.6664,0.6668,0.6663,0.6665,0.6663,0.666,0.6657,0.6658,0.6658,0.6652,0.6646,0.6644,0.6643,0.6641,0.6641,0.6648,0.6644,0.6617,0.6612,0.6608,0.6606,0.6648,0.6649,0.6673,0.6673,0.6673]},{"header":{"parameterUnit":"m.s-1","parameterCategory":1,"la1":30.2991,"la2":30.254,"lo1":-89.0895,"lo2":-89.0444,"dy":0.0017,"dx":0.0017,"nx":28,"ny":28,"refTime":"2025-06-17T03:00:00:Z","depth":0,"parameterNumber":3,"parameterNumberName":"V-component_of_WINDS"},"data":[0,0,0,0,0,0,0,0,0,0,0,0,0,0,0,0,0,0,0,0,0,0,0,0,0,0,0,0,0,0,0,0,0,0,0,0,0,0,0,0,0,0,0,0,0,0,0,0,0,0,0,0,0,0,0,0,0,0,4.0453,4.0453,0,4.0472,4.0472,4.0472,4.0453,4.0452,4.0452,4.0451,4.0467,4.0469,4.047,0,0,0,0,0,0,0,0,0,0,0,0,0,4.0399,4.0401,4.0453,4.0453,4.0454,4.0472,4.0472,4.0472,4.0453,4.0452,4.0451,4.0451,4.0467,4.0468,4.047,0,0,0,0,0,0,0,0,0,0,0,0,0,4.0421,4.0401,4.0453,4.0446,4.0446,4.0472,4.0472,4.0472,4.0453,4.0452,4.0451,4.045,4.0467,4.0468,4.047,4.0502,0,0,4.0475,4.0476,0,0,0,0,0,0,0,0,4.042,4.0423,4.0447,4.0447,4.0446,4.0459,4.0459,4.0482,4.0454,4.045,4.0451,4.045,4.0465,4.0467,4.0473,4.0503,4.0504,4.0475,4.0476,4.0477,4.0477,0,0,0,0,0,0,0,4.0418,4.0422,4.046,4.0447,4.0447,4.0442,4.0444,4.0463,4.0464,4.0451,4.0449,4.0452,4.0465,4.0471,4.0473,4.0504,4.0475,4.0477,4.0478,4.0478,4.0562,4.0563,0,0,0,0,0,0,4.0418,4.0421,4.046,4.0461,4.043,4.0444,4.0446,4.0456,4.0463,4.0464,4.0453,4.0451,4.0469,4.0471,4.0474,4.0512,4.0477,4.0479,4.0479,4.0561,4.0562,4.0563,0,0,0,0,0,0,4.0417,4.0421,4.0459,4.0441,4.0445,4.0446,4.0457,4.0457,4.0463,4.0465,4.0465,4.0459,4.0468,4.0471,4.0495,4.0512,4.0479,4.0481,4.0559,4.0561,4.0563,4.0589,0,0,0,0,0,0,4.0415,4.0421,4.0434,4.0441,4.0446,4.0481,4.0459,4.0458,4.0467,4.0464,4.0471,4.0471,4.0468,4.0493,4.0497,4.0514,4.0482,4.0558,4.056,4.0562,4.0587,4.0591,4.0596,0,0,0,0,0,4.0413,4.044,4.0434,4.0439,4.0462,4.0482,4.0485,4.0481,4.0468,4.048,4.0482,4.0471,4.051,4.0496,4.05,4.0518,4.0557,4.0559,4.0562,4.0585,4.059,4.0595,0,0,0,0,0,0,4.0433,4.044,4.0435,4.0464,4.0473,4.0479,4.0494,4.0487,4.0499,4.0496,4.049,4.0491,4.0517,4.052,4.0504,4.055,4.0531,4.0535,4.0547,4.0552,4.0557,4.0555,4.0483,0,0,0,0,0,4.0441,4.0458,4.0463,4.0489,4.0493,4.0493,4.0502,4.0498,4.0506,4.051,4.0513,4.052,4.0534,4.0544,4.0557,4.0587,4.0588,4.0602,4.0606,4.061,4.0613,4.0629,4.0635,4.0572,4.0572,4.0572,0,0,4.0457,4.0463,4.0474,4.0493,4.0499,4.0516,4.0496,4.0515,4.0527,4.0512,4.0535,4.0538,4.0546,4.0574,4.0586,4.0577,4.0631,4.0613,4.0616,4.0617,4.0633,4.0639,4.0644,4.0574,4.0574,4.0574,0,0,4.0495,4.0502,4.0524,4.0531,4.0541,4.0541,4.0547,4.0554,4.0556,4.058,4.0569,4.0583,4.0607,4.0614,4.062,4.0662,4.0653,4.0667,4.069,4.0706,4.0711,4.0715,4.073,4.0736,4.067,4.067,4.067,0,4.0514,4.054,4.0536,4.0556,4.0564,4.0553,4.0575,4.0582,4.0596,4.0601,4.0591,4.0622,4.0627,4.0656,4.0666,4.0672,4.0678,4.0665,4.0711,4.0715,4.0719,4.0733,4.0739,4.0672,4.0671,4.0671,4.0671,0,4.0562,4.058,4.0597,4.0611,4.0622,4.0642,4.0642,4.0653,4.0648,4.0649,4.0674,4.0679,4.0693,4.07,4.0696,4.0729,4.0723,4.0712,4.0693,4.0727,4.074,4.0745,4.0674,4.0673,4.0673,4.0672,0,0,4.0612,4.0625,4.0632,4.0638,4.0649,4.0663,4.0683,4.0698,4.0707,4.0717,4.0734,4.0755,4.0746,4.0753,4.0749,4.0764,4.0797,4.0751,4.0751,4.0759,4.0833,4.0841,4.0847,4.0791,4.0792,4.0793,4.0832,0,4.065,4.0686,4.0684,4.0718,4.0734,4.0725,4.0742,4.0751,4.0753,4.0766,4.0768,4.0783,4.077,4.0774,4.0788,4.079,4.0811,4.0787,4.0805,4.0806,4.0803,4.0854,4.0862,4.0899,4.0838,4.0838,4.0839,0,4.0699,4.0712,4.0748,4.0757,4.0764,4.078,4.0794,4.0807,4.0817,4.0817,4.0826,4.082,4.084,4.0822,4.0849,4.0833,4.084,4.0843,4.0844,4.0845,4.0824,4.0856,4.0911,4.0917,4.0847,4.0846,4.0846,0,4.0731,4.0758,4.0783,4.0789,4.08,4.0812,4.0817,4.0826,4.0835,4.0847,4.0853,4.0867,4.0874,4.0885,4.0882,4.0869,4.091,4.0892,4.0911,4.0911,4.0919,4.0918,4.0976,4.0925,4.0925,4.0925,4.0925,0,4.0774,4.0796,4.0798,4.0813,4.0837,4.0835,4.0859,4.0863,4.0871,4.0886,4.0879,4.0893,4.089,4.0904,4.0903,4.0925,4.0929,4.0929,4.0928,4.093,4.0929,4.0934,4.0931,4.0926,4.0926,4.0926,4.0925,0,4.0814,4.0816,4.0842,4.0852,4.0855,4.0872,4.088,4.0894,4.0896,4.0915,4.092,4.0922,4.0939,4.0938,4.0956,4.0955,4.0984,4.098,4.0981,4.098,4.0999,4.0997,4.106,4.1068,4.1013,4.1013,4.1014,0,4.084,4.0857,4.0869,4.088,4.0886,4.0902,4.0912,4.0911,4.0921,4.0934,4.0947,4.0963,4.0975,4.1002,4.1005,4.1019,4.1016,4.1037,4.1017,4.1018,4.1015,4.1014,4.1016,4.104,4.1041,4.1041,4.1042,0,4.0887,4.0888,4.0903,4.0919,4.0931,4.0943,4.0954,4.0963,4.0963,4.0975,4.0992,4.1002,4.1022,4.1038,4.1052,4.1056,4.1049,4.1048,4.1053,4.1054,4.1054,4.1054,4.099,4.1046,4.1046,4.1046,4.1045,4.1045,4.0921,4.0936,4.0947,4.0964,4.0973,4.0984,4.0998,4.1002,4.1017,4.1033,4.1031,4.1051,4.106,4.1078,4.1084,4.1099,4.1091,4.1098,4.11,4.1102,4.1104,4.1052,4.1101,4.1101,4.1101,4.1101,4.1101,0,4.0967,4.0975,4.0991,4.1007,4.1021,4.1014,4.1026,4.1038,4.1055,4.1065,4.1078,4.1099,4.1114,4.1119,4.1134,4.1145,4.1142,4.1149,4.1148,4.1149,4.111,4.1104,4.1151,4.1151,4.1151,4.1151,4.1151,4.1151,4.0993,4.1018,4.102,4.1049,4.1056,4.1076,4.1083,4.1093,4.1101,4.1124,4.1138,4.1141,4.1149,4.1165,4.1179,4.118,4.1185,4.1193,4.1193,4.1156,4.1151,4.1147,4.1141,4.1195,4.1195,4.123,4.1231,4.1231]}]]